Time,TemperatureF,DewpointF,PressureIn,WindDirection,WindDirectionDegrees,WindSpeedMPH,WindSpeedGustMPH,Humidity,HourlyPrecipIn,Conditions,Clouds,dailyrainin,SoftwareType,DateUTC
2013-05-19 00:01:00,51.8,49.0,30.14,NNW,344,3.0,5.0,90,0.00,,,0.00,LWC V1.00 B64,2013-05-19 07:01:00,
2013-05-19 00:06:00,51.6,48.8,30.14,North,350,1.0,3.0,90,0.00,,,0.00,LWC V1.00 B64,2013-05-19 07:06:00,
2013-05-19 00:11:00,51.5,48.7,30.14,North,350,3.0,10.0,90,0.00,,,0.00,LWC V1.00 B64,2013-05-19 07:11:00,
2013-05-19 00:16:00,51.5,48.7,30.13,North,5,6.0,7.0,90,0.00,,,0.00,LWC V1.00 B64,2013-05-19 07:16:00,
2013-05-19 00:21:00,51.5,48.7,30.14,North,10,10.0,11.0,90,0.00,,,0.00,LWC V1.00 B64,2013-05-19 07:21:00,
2013-05-19 00:26:00,51.5,48.7,30.13,NNW,348,3.0,8.0,90,0.00,,,0.00,LWC V1.00 B64,2013-05-19 07:26:00,
2013-05-19 00:31:00,51.5,48.7,30.13,North,9,3.0,8.0,90,0.00,,,0.00,LWC V1.00 B64,2013-05-19 07:31:00,
2013-05-19 00:36:00,51.5,48.7,30.14,North,0,11.0,12.0,90,0.00,,,0.00,LWC V1.00 B64,2013-05-19 07:36:00,
2013-05-19 00:41:00,51.5,48.7,30.14,North,0,5.0,10.0,90,0.00,,,0.00,LWC V1.00 B64,2013-05-19 07:41:00,
2013-05-19 00:46:00,51.5,49.0,30.14,North,5,2.0,10.0,91,0.00,,,0.00,LWC V1.00 B64,2013-05-19 07:46:00,
2013-05-19 00:51:00,51.5,49.0,30.14,North,355,4.0,10.0,91,0.00,,,0.00,LWC V1.00 B64,2013-05-19 07:51:00,
2013-05-19 00:56:00,51.4,48.9,30.14,NNW,344,3.0,9.0,91,0.00,,,0.00,LWC V1.00 B64,2013-05-19 07:56:00,
2013-05-19 01:01:00,51.4,48.9,30.13,North,355,6.0,9.0,91,0.00,,,0.00,LWC V1.00 B64,2013-05-19 08:01:00,
2013-05-19 01:06:00,51.4,48.9,30.13,NNW,348,3.0,4.0,91,0.00,,,0.00,LWC V1.00 B64,2013-05-19 08:06:00,
2013-05-19 01:11:00,51.4,48.9,30.13,North,349,4.0,5.0,91,0.00,,,0.00,LWC V1.00 B64,2013-05-19 08:11:00,
2013-05-19 01:16:00,51.4,48.9,30.13,North,349,4.0,7.0,91,0.00,,,0.00,LWC V1.00 B64,2013-05-19 08:16:00,
2013-05-19 01:21:00,51.5,49.0,30.13,North,0,2.0,4.0,91,0.00,,,0.00,LWC V1.00 B64,2013-05-19 08:21:00,
2013-05-19 01:26:00,51.5,48.7,30.13,North,351,2.0,5.0,90,0.00,,,0.00,LWC V1.00 B64,2013-05-19 08:26:00,
2013-05-19 01:31:00,51.4,48.6,30.13,NNW,341,6.0,10.0,90,0.00,,,0.00,LWC V1.00 B64,2013-05-19 08:31:00,
2013-05-19 01:36:00,51.5,48.7,30.13,North,5,2.0,6.0,90,0.00,,,0.00,LWC V1.00 B64,2013-05-19 08:36:00,
2013-05-19 01:41:00,51.4,48.6,30.13,NNW,346,2.0,4.0,90,0.00,,,0.00,LWC V1.00 B64,2013-05-19 08:41:00,
2013-05-19 01:46:00,51.3,48.5,30.13,North,349,0.0,0.0,90,0.00,,,0.00,LWC V1.00 B64,2013-05-19 08:46:00,
2013-05-19 01:51:00,50.8,48.0,30.13,North,350,0.0,0.0,90,0.00,,,0.00,LWC V1.00 B64,2013-05-19 08:51:00,
2013-05-19 01:56:00,50.5,47.7,30.12,North,350,0.0,1.0,90,0.00,,,0.00,LWC V1.00 B64,2013-05-19 08:56:00,
2013-05-19 02:01:00,50.2,47.4,30.12,North,350,0.0,1.0,90,0.00,,,0.00,LWC V1.00 B64,2013-05-19 09:01:00,
2013-05-19 02:06:00,50.0,47.5,30.13,North,350,0.0,2.0,91,0.00,,,0.00,LWC V1.00 B64,2013-05-19 09:06:00,
2013-05-19 02:11:00,50.1,47.6,30.13,North,350,0.0,1.0,91,0.00,,,0.00,LWC V1.00 B64,2013-05-19 09:11:00,
2013-05-19 02:16:00,50.4,48.2,30.12,North,355,4.0,6.0,92,0.00,,,0.00,LWC V1.00 B64,2013-05-19 09:16:00,
2013-05-19 02:21:00,50.8,48.6,30.13,North,355,0.0,5.0,92,0.00,,,0.00,LWC V1.00 B64,2013-05-19 09:21:00,
2013-05-19 02:26:00,50.8,48.3,30.13,North,355,0.0,0.0,91,0.00,,,0.00,LWC V1.00 B64,2013-05-19 09:26:00,
2013-05-19 02:31:00,50.7,48.2,30.13,North,355,0.0,0.0,91,0.00,,,0.00,LWC V1.00 B64,2013-05-19 09:31:00,
2013-05-19 02:36:00,50.3,47.5,30.13,North,355,0.0,0.0,90,0.00,,,0.00,LWC V1.00 B64,2013-05-19 09:36:00,
2013-05-19 02:41:00,49.9,47.1,30.13,North,355,0.0,0.0,90,0.00,,,0.00,LWC V1.00 B64,2013-05-19 09:41:00,
2013-05-19 02:46:00,49.5,46.7,30.13,North,355,0.0,0.0,90,0.00,,,0.00,LWC V1.00 B64,2013-05-19 09:46:00,
2013-05-19 02:51:00,49.1,46.6,30.13,North,355,0.0,0.0,91,0.00,,,0.00,LWC V1.00 B64,2013-05-19 09:51:00,
2013-05-19 02:56:00,48.7,46.2,30.13,North,355,0.0,0.0,91,0.00,,,0.00,LWC V1.00 B64,2013-05-19 09:56:00,
2013-05-19 03:01:00,48.7,46.2,30.13,North,355,0.0,0.0,91,0.00,,,0.00,LWC V1.00 B64,2013-05-19 10:01:00,
2013-05-19 03:06:00,48.5,46.0,30.13,North,355,0.0,0.0,91,0.00,,,0.00,LWC V1.00 B64,2013-05-19 10:06:00,
2013-05-19 03:11:00,48.5,46.3,30.13,North,355,0.0,0.0,92,0.00,,,0.00,LWC V1.00 B64,2013-05-19 10:11:00,
2013-05-19 03:16:00,48.3,46.1,30.14,North,355,0.0,0.0,92,0.00,,,0.00,LWC V1.00 B64,2013-05-19 10:16:00,
2013-05-19 03:21:00,48.1,45.9,30.14,North,355,0.0,0.0,92,0.00,,,0.00,LWC V1.00 B64,2013-05-19 10:21:00,
2013-05-19 03:26:00,48.0,45.8,30.13,North,355,0.0,0.0,92,0.00,,,0.00,LWC V1.00 B64,2013-05-19 10:26:00,
2013-05-19 03:31:00,48.0,45.8,30.14,North,355,0.0,0.0,92,0.00,,,0.00,LWC V1.00 B64,2013-05-19 10:31:00,
2013-05-19 03:36:00,47.9,45.7,30.14,North,355,0.0,0.0,92,0.00,,,0.00,LWC V1.00 B64,2013-05-19 10:36:00,
2013-05-19 03:41:00,47.7,45.5,30.14,North,355,0.0,0.0,92,0.00,,,0.00,LWC V1.00 B64,2013-05-19 10:41:00,
2013-05-19 03:46:00,47.5,45.3,30.13,North,355,0.0,0.0,92,0.00,,,0.00,LWC V1.00 B64,2013-05-19 10:46:00,
2013-05-19 03:51:00,47.3,45.1,30.13,North,355,0.0,0.0,92,0.00,,,0.00,LWC V1.00 B64,2013-05-19 10:51:00,
2013-05-19 03:56:00,47.2,45.0,30.13,North,355,0.0,0.0,92,0.00,,,0.00,LWC V1.00 B64,2013-05-19 10:56:00,
2013-05-19 04:01:00,47.0,44.8,30.13,North,355,0.0,0.0,92,0.00,,,0.00,LWC V1.00 B64,2013-05-19 11:01:00,
2013-05-19 04:06:00,46.9,44.7,30.13,North,355,0.0,0.0,92,0.00,,,0.00,LWC V1.00 B64,2013-05-19 11:06:00,
2013-05-19 04:11:00,46.9,45.0,30.13,North,355,0.0,0.0,93,0.00,,,0.00,LWC V1.00 B64,2013-05-19 11:11:00,
2013-05-19 04:16:00,46.8,44.9,30.13,North,355,0.0,0.0,93,0.00,,,0.00,LWC V1.00 B64,2013-05-19 11:16:00,
2013-05-19 04:21:00,46.8,44.9,30.13,North,355,0.0,0.0,93,0.00,,,0.00,LWC V1.00 B64,2013-05-19 11:21:00,
2013-05-19 04:26:00,46.8,44.9,30.14,North,355,0.0,0.0,93,0.00,,,0.00,LWC V1.00 B64,2013-05-19 11:26:00,
2013-05-19 04:31:00,46.8,44.9,30.13,North,355,0.0,0.0,93,0.00,,,0.00,LWC V1.00 B64,2013-05-19 11:31:00,
2013-05-19 04:36:00,46.8,44.9,30.14,North,355,0.0,0.0,93,0.00,,,0.00,LWC V1.00 B64,2013-05-19 11:36:00,
2013-05-19 04:41:00,46.7,44.8,30.13,North,355,0.0,0.0,93,0.00,,,0.00,LWC V1.00 B64,2013-05-19 11:41:00,
2013-05-19 04:46:00,46.7,44.8,30.13,North,355,0.0,0.0,93,0.00,,,0.00,LWC V1.00 B64,2013-05-19 11:46:00,
2013-05-19 04:51:00,46.5,44.6,30.14,North,355,0.0,0.0,93,0.00,,,0.00,LWC V1.00 B64,2013-05-19 11:51:00,
2013-05-19 04:56:00,46.4,44.5,30.14,North,355,0.0,0.0,93,0.00,,,0.00,LWC V1.00 B64,2013-05-19 11:56:00,
2013-05-19 05:01:00,46.3,44.4,30.14,North,355,0.0,0.0,93,0.00,,,0.00,LWC V1.00 B64,2013-05-19 12:01:00,
2013-05-19 05:06:00,46.2,44.3,30.14,North,355,0.0,0.0,93,0.00,,,0.00,LWC V1.00 B64,2013-05-19 12:06:00,
2013-05-19 05:11:00,46.0,44.1,30.14,North,355,0.0,0.0,93,0.00,,,0.00,LWC V1.00 B64,2013-05-19 12:11:00,
2013-05-19 05:16:00,45.8,43.9,30.14,North,355,0.0,0.0,93,0.00,,,0.00,LWC V1.00 B64,2013-05-19 12:16:00,
2013-05-19 05:21:00,45.6,43.7,30.13,North,355,0.0,0.0,93,0.00,,,0.00,LWC V1.00 B64,2013-05-19 12:21:00,
2013-05-19 05:26:00,45.4,43.5,30.14,North,355,0.0,0.0,93,0.00,,,0.00,LWC V1.00 B64,2013-05-19 12:26:00,
2013-05-19 05:31:00,45.1,43.2,30.14,North,355,0.0,0.0,93,0.00,,,0.00,LWC V1.00 B64,2013-05-19 12:31:00,
2013-05-19 05:36:00,44.8,42.9,30.14,North,355,0.0,0.0,93,0.00,,,0.00,LWC V1.00 B64,2013-05-19 12:36:00,
2013-05-19 05:41:00,44.6,42.7,30.14,North,355,0.0,0.0,93,0.00,,,0.00,LWC V1.00 B64,2013-05-19 12:41:00,
2013-05-19 05:46:00,44.5,42.6,30.14,North,355,0.0,0.0,93,0.00,,,0.00,LWC V1.00 B64,2013-05-19 12:46:00,
2013-05-19 05:51:00,44.2,42.3,30.15,North,355,0.0,0.0,93,0.00,,,0.00,LWC V1.00 B64,2013-05-19 12:51:00,
2013-05-19 05:56:00,44.1,42.2,30.14,North,355,0.0,0.0,93,0.00,,,0.00,LWC V1.00 B64,2013-05-19 12:56:00,
2013-05-19 06:01:00,43.8,41.9,30.15,North,355,0.0,0.0,93,0.00,,,0.00,LWC V1.00 B64,2013-05-19 13:01:00,
2013-05-19 06:06:00,43.7,41.8,30.15,North,355,0.0,0.0,93,0.00,,,0.00,LWC V1.00 B64,2013-05-19 13:06:00,
2013-05-19 06:11:00,43.7,41.8,30.15,North,355,0.0,0.0,93,0.00,,,0.00,LWC V1.00 B64,2013-05-19 13:11:00,
2013-05-19 06:16:00,43.7,41.8,30.15,North,355,0.0,0.0,93,0.00,,,0.00,LWC V1.00 B64,2013-05-19 13:16:00,
2013-05-19 06:21:00,43.6,41.7,30.14,North,355,0.0,0.0,93,0.00,,,0.00,LWC V1.00 B64,2013-05-19 13:21:00,
2013-05-19 06:26:00,43.5,41.6,30.15,North,355,0.0,0.0,93,0.00,,,0.00,LWC V1.00 B64,2013-05-19 13:26:00,
2013-05-19 06:31:00,43.4,41.8,30.14,North,355,0.0,0.0,94,0.00,,,0.00,LWC V1.00 B64,2013-05-19 13:31:00,
2013-05-19 06:36:00,43.4,41.8,30.15,North,355,0.0,0.0,94,0.00,,,0.00,LWC V1.00 B64,2013-05-19 13:36:00,
2013-05-19 06:41:00,43.5,41.9,30.15,North,355,0.0,1.0,94,0.00,,,0.00,LWC V1.00 B64,2013-05-19 13:41:00,
2013-05-19 06:46:00,43.6,42.0,30.15,North,355,0.0,0.0,94,0.00,,,0.00,LWC V1.00 B64,2013-05-19 13:46:00,
2013-05-19 06:51:00,43.6,42.0,30.15,North,355,0.0,0.0,94,0.00,,,0.00,LWC V1.00 B64,2013-05-19 13:51:00,
2013-05-19 06:56:00,43.5,41.9,30.14,North,355,0.0,0.0,94,0.00,,,0.00,LWC V1.00 B64,2013-05-19 13:56:00,
2013-05-19 07:01:00,43.6,42.0,30.14,North,355,0.0,0.0,94,0.00,,,0.00,LWC V1.00 B64,2013-05-19 14:01:00,
2013-05-19 07:06:00,43.7,42.1,30.15,North,355,0.0,0.0,94,0.00,,,0.00,LWC V1.00 B64,2013-05-19 14:06:00,
2013-05-19 07:11:00,43.9,42.3,30.15,North,355,0.0,0.0,94,0.00,,,0.00,LWC V1.00 B64,2013-05-19 14:11:00,
2013-05-19 07:16:00,44.5,43.2,30.15,North,355,0.0,0.0,95,0.00,,,0.00,LWC V1.00 B64,2013-05-19 14:16:00,
2013-05-19 07:21:00,44.7,43.1,30.15,North,355,0.0,0.0,94,0.00,,,0.00,LWC V1.00 B64,2013-05-19 14:21:00,
2013-05-19 07:26:00,45.0,43.7,30.15,North,355,0.0,0.0,95,0.00,,,0.00,LWC V1.00 B64,2013-05-19 14:26:00,
2013-05-19 07:31:00,45.2,43.9,30.15,North,355,0.0,0.0,95,0.00,,,0.00,LWC V1.00 B64,2013-05-19 14:31:00,
2013-05-19 07:36:00,45.5,43.9,30.15,North,355,0.0,0.0,94,0.00,,,0.00,LWC V1.00 B64,2013-05-19 14:36:00,
2013-05-19 07:41:00,45.8,44.4,30.15,North,355,0.0,0.0,95,0.00,,,0.00,LWC V1.00 B64,2013-05-19 14:41:00,
2013-05-19 07:46:00,46.2,44.8,30.15,North,355,0.0,0.0,95,0.00,,,0.00,LWC V1.00 B64,2013-05-19 14:46:00,
2013-05-19 07:51:00,46.7,45.3,30.15,North,355,0.0,0.0,95,0.00,,,0.00,LWC V1.00 B64,2013-05-19 14:51:00,
2013-05-19 07:56:00,47.1,45.7,30.15,North,355,0.0,0.0,95,0.00,,,0.00,LWC V1.00 B64,2013-05-19 14:56:00,
2013-05-19 08:01:00,47.5,46.1,30.15,North,355,0.0,0.0,95,0.00,,,0.00,LWC V1.00 B64,2013-05-19 15:01:00,
2013-05-19 08:06:00,47.9,46.5,30.15,North,355,0.0,0.0,95,0.00,,,0.00,LWC V1.00 B64,2013-05-19 15:06:00,
2013-05-19 08:11:00,48.4,47.0,30.15,North,355,0.0,0.0,95,0.00,,,0.00,LWC V1.00 B64,2013-05-19 15:11:00,
2013-05-19 08:16:00,48.9,47.5,30.15,North,355,0.0,0.0,95,0.00,,,0.00,LWC V1.00 B64,2013-05-19 15:16:00,
2013-05-19 08:21:00,49.4,48.0,30.15,North,355,0.0,0.0,95,0.00,,,0.00,LWC V1.00 B64,2013-05-19 15:21:00,
2013-05-19 08:26:00,49.8,48.4,30.15,North,355,0.0,0.0,95,0.00,,,0.00,LWC V1.00 B64,2013-05-19 15:26:00,
2013-05-19 08:31:00,50.3,48.9,30.15,North,355,0.0,0.0,95,0.00,,,0.00,LWC V1.00 B64,2013-05-19 15:31:00,
2013-05-19 08:36:00,50.8,49.4,30.15,North,355,0.0,0.0,95,0.00,,,0.00,LWC V1.00 B64,2013-05-19 15:36:00,
2013-05-19 08:41:00,51.3,49.9,30.15,North,355,0.0,0.0,95,0.00,,,0.00,LWC V1.00 B64,2013-05-19 15:41:00,
2013-05-19 08:46:00,51.9,50.5,30.14,North,355,0.0,1.0,95,0.00,,,0.00,LWC V1.00 B64,2013-05-19 15:46:00,
2013-05-19 08:51:00,52.7,51.3,30.14,North,355,0.0,3.0,95,0.00,,,0.00,LWC V1.00 B64,2013-05-19 15:51:00,
2013-05-19 08:56:00,53.4,51.7,30.14,North,355,0.0,3.0,94,0.00,,,0.00,LWC V1.00 B64,2013-05-19 15:56:00,
2013-05-19 09:01:00,54.0,52.0,30.14,North,355,1.0,4.0,93,0.00,,,0.00,LWC V1.00 B64,2013-05-19 16:01:00,
2013-05-19 09:06:00,54.9,52.0,30.15,North,355,1.0,4.0,90,0.00,,,0.00,LWC V1.00 B64,2013-05-19 16:06:00,
2013-05-19 09:11:00,55.7,52.2,30.14,North,355,4.0,4.0,88,0.00,,,0.00,LWC V1.00 B64,2013-05-19 16:11:00,
2013-05-19 09:16:00,56.5,52.0,30.14,North,355,2.0,4.0,85,0.00,,,0.00,LWC V1.00 B64,2013-05-19 16:16:00,
2013-05-19 09:21:00,57.2,52.1,30.14,North,355,3.0,4.0,83,0.00,,,0.00,LWC V1.00 B64,2013-05-19 16:21:00,
2013-05-19 09:26:00,57.8,52.3,30.14,North,355,1.0,4.0,82,0.00,,,0.00,LWC V1.00 B64,2013-05-19 16:26:00,
2013-05-19 09:31:00,58.2,52.4,30.14,North,355,2.0,3.0,81,0.00,,,0.00,LWC V1.00 B64,2013-05-19 16:31:00,
2013-05-19 09:36:00,58.7,52.2,30.14,North,355,3.0,5.0,79,0.00,,,0.00,LWC V1.00 B64,2013-05-19 16:36:00,
2013-05-19 09:41:00,59.4,51.8,30.14,North,349,1.0,5.0,76,0.00,,,0.00,LWC V1.00 B64,2013-05-19 16:41:00,
2013-05-19 09:46:00,59.7,51.8,30.14,NNW,347,3.0,5.0,75,0.00,,,0.00,LWC V1.00 B64,2013-05-19 16:46:00,
2013-05-19 09:51:00,60.2,52.2,30.13,NNW,346,2.0,5.0,75,0.00,,,0.00,LWC V1.00 B64,2013-05-19 16:51:00,
2013-05-19 09:56:00,60.7,52.4,30.13,NNW,345,5.0,5.0,74,0.00,,,0.00,LWC V1.00 B64,2013-05-19 16:56:00,
2013-05-19 10:01:00,61.0,51.9,30.13,NNW,340,1.0,6.0,72,0.00,,,0.00,LWC V1.00 B64,2013-05-19 17:01:00,
2013-05-19 10:06:00,61.5,52.0,30.13,NNW,339,4.0,5.0,71,0.00,,,0.00,LWC V1.00 B64,2013-05-19 17:06:00,
2013-05-19 10:11:00,61.7,51.8,30.13,NNW,341,2.0,3.0,70,0.00,,,0.00,LWC V1.00 B64,2013-05-19 17:11:00,
2013-05-19 10:16:00,62.2,51.5,30.13,NNW,338,2.0,6.0,68,0.00,,,0.00,LWC V1.00 B64,2013-05-19 17:16:00,
2013-05-19 10:21:00,62.8,51.3,30.13,NNW,342,3.0,7.0,66,0.00,,,0.00,LWC V1.00 B64,2013-05-19 17:21:00,
2013-05-19 10:26:00,63.4,51.8,30.13,NNW,342,1.0,4.0,66,0.00,,,0.00,LWC V1.00 B64,2013-05-19 17:26:00,
2013-05-19 10:32:00,64.0,51.1,30.13,NNW,342,3.0,7.0,63,0.00,,,0.00,LWC V1.00 B64,2013-05-19 17:32:00,
2013-05-19 10:37:00,64.3,51.4,30.13,NNW,345,4.0,6.0,63,0.00,,,0.00,LWC V1.00 B64,2013-05-19 17:37:00,
2013-05-19 10:42:00,64.7,50.0,30.12,NNW,340,3.0,7.0,59,0.00,,,0.00,LWC V1.00 B64,2013-05-19 17:42:00,
2013-05-19 10:47:00,65.3,51.1,30.12,NNW,344,5.0,6.0,60,0.00,,,0.00,LWC V1.00 B64,2013-05-19 17:47:00,
2013-05-19 10:52:00,66.0,52.2,30.12,North,349,6.0,7.0,61,0.00,,,0.00,LWC V1.00 B64,2013-05-19 17:52:00,
2013-05-19 10:57:00,66.1,50.4,30.12,North,0,5.0,9.0,57,0.00,,,0.00,LWC V1.00 B64,2013-05-19 17:57:00,
2013-05-19 11:02:00,66.8,52.5,30.12,NNW,344,2.0,10.0,60,0.00,,,0.00,LWC V1.00 B64,2013-05-19 18:02:00,
2013-05-19 11:07:00,67.1,52.3,30.12,North,355,3.0,5.0,59,0.00,,,0.00,LWC V1.00 B64,2013-05-19 18:07:00,
2013-05-19 11:12:00,67.2,53.3,30.12,NW,325,7.0,11.0,61,0.00,,,0.00,LWC V1.00 B64,2013-05-19 18:12:00,
2013-05-19 11:17:00,66.9,53.0,30.12,North,0,9.0,10.0,61,0.00,,,0.00,LWC V1.00 B64,2013-05-19 18:17:00,
2013-05-19 11:22:00,65.9,52.5,30.12,North,0,11.0,13.0,62,0.00,,,0.00,LWC V1.00 B64,2013-05-19 18:22:00,
2013-05-19 11:27:00,64.7,52.7,30.12,North,9,7.0,12.0,65,0.00,,,0.00,LWC V1.00 B64,2013-05-19 18:27:00,
2013-05-19 11:32:00,64.0,52.4,30.12,NNW,345,12.0,13.0,66,0.00,,,0.00,LWC V1.00 B64,2013-05-19 18:32:00,
2013-05-19 11:37:00,64.0,52.8,30.12,North,0,8.0,12.0,67,0.00,,,0.00,LWC V1.00 B64,2013-05-19 18:37:00,
2013-05-19 11:42:00,64.2,53.0,30.12,NNW,341,12.0,16.0,67,0.00,,,0.00,LWC V1.00 B64,2013-05-19 18:42:00,
2013-05-19 11:47:00,64.3,52.7,30.12,North,9,7.0,10.0,66,0.00,,,0.00,LWC V1.00 B64,2013-05-19 18:47:00,
2013-05-19 11:52:00,64.3,52.7,30.12,North,0,4.0,9.0,66,0.00,,,0.00,LWC V1.00 B64,2013-05-19 18:52:00,
2013-05-19 11:57:00,64.8,53.2,30.12,North,355,9.0,15.0,66,0.00,,,0.00,LWC V1.00 B64,2013-05-19 18:57:00,
2013-05-19 12:02:00,64.8,53.2,30.12,NNW,345,4.0,13.0,66,0.00,,,0.00,LWC V1.00 B64,2013-05-19 19:02:00,
2013-05-19 12:07:00,64.8,53.2,30.12,NW,323,11.0,13.0,66,0.00,,,0.00,LWC V1.00 B64,2013-05-19 19:07:00,
2013-05-19 12:12:00,64.6,53.0,30.12,NNW,333,11.0,13.0,66,0.00,,,0.00,LWC V1.00 B64,2013-05-19 19:12:00,
2013-05-19 12:17:00,64.9,53.3,30.12,NNW,331,15.0,15.0,66,0.00,,,0.00,LWC V1.00 B64,2013-05-19 19:17:00,
2013-05-19 12:22:00,64.8,52.8,30.11,NNW,335,15.0,15.0,65,0.00,,,0.00,LWC V1.00 B64,2013-05-19 19:22:00,
2013-05-19 12:27:00,64.9,53.3,30.12,NW,323,13.0,14.0,66,0.00,,,0.00,LWC V1.00 B64,2013-05-19 19:27:00,
2013-05-19 12:32:00,64.6,53.4,30.11,North,9,5.0,15.0,67,0.00,,,0.00,LWC V1.00 B64,2013-05-19 19:32:00,
2013-05-19 12:37:00,64.7,53.1,30.11,North,11,6.0,13.0,66,0.00,,,0.00,LWC V1.00 B64,2013-05-19 19:37:00,
2013-05-19 12:42:00,64.6,53.4,30.11,NNW,334,5.0,15.0,67,0.00,,,0.00,LWC V1.00 B64,2013-05-19 19:42:00,
2013-05-19 12:47:00,65.2,54.4,30.11,North,9,12.0,12.0,68,0.00,,,0.00,LWC V1.00 B64,2013-05-19 19:47:00,
2013-05-19 12:52:00,65.0,52.9,30.10,NNW,342,10.0,18.0,65,0.00,,,0.00,LWC V1.00 B64,2013-05-19 19:52:00,
2013-05-19 12:57:00,65.0,54.2,30.10,NNW,343,5.0,14.0,68,0.00,,,0.00,LWC V1.00 B64,2013-05-19 19:57:00,
2013-05-19 13:02:00,64.8,53.6,30.10,NNW,348,14.0,16.0,67,0.00,,,0.00,LWC V1.00 B64,2013-05-19 20:02:00,
2013-05-19 13:07:00,64.7,53.9,30.10,NNE,20,15.0,16.0,68,0.00,,,0.00,LWC V1.00 B64,2013-05-19 20:07:00,
2013-05-19 13:12:00,64.7,53.9,30.10,NNW,329,7.0,15.0,68,0.00,,,0.00,LWC V1.00 B64,2013-05-19 20:12:00,
2013-05-19 13:17:00,64.4,54.4,30.10,NE,40,14.0,22.0,70,0.00,,,0.00,LWC V1.00 B64,2013-05-19 20:17:00,
2013-05-19 13:22:00,64.0,53.6,30.10,NNE,15,11.0,13.0,69,0.00,,,0.00,LWC V1.00 B64,2013-05-19 20:22:00,
2013-05-19 13:27:00,63.9,53.9,30.10,NNW,347,4.0,17.0,70,0.00,,,0.00,LWC V1.00 B64,2013-05-19 20:27:00,
2013-05-19 13:32:00,63.7,53.3,30.10,North,355,13.0,19.0,69,0.00,,,0.00,LWC V1.00 B64,2013-05-19 20:32:00,
2013-05-19 13:37:00,63.3,53.3,30.10,North,0,13.0,16.0,70,0.00,,,0.00,LWC V1.00 B64,2013-05-19 20:37:00,
2013-05-19 13:42:00,63.5,53.5,30.10,NNW,338,7.0,17.0,70,0.00,,,0.00,LWC V1.00 B64,2013-05-19 20:42:00,
2013-05-19 13:47:00,63.0,52.7,30.10,NNW,340,13.0,18.0,69,0.00,,,0.00,LWC V1.00 B64,2013-05-19 20:47:00,
2013-05-19 13:52:00,63.1,54.3,30.10,NNW,337,7.0,15.0,73,0.00,,,0.00,LWC V1.00 B64,2013-05-19 20:52:00,
2013-05-19 13:57:00,63.4,54.2,30.10,NNW,348,13.0,15.0,72,0.00,,,0.00,LWC V1.00 B64,2013-05-19 20:57:00,
2013-05-19 14:02:00,62.8,53.3,30.10,NNW,342,9.0,19.0,71,0.00,,,0.00,LWC V1.00 B64,2013-05-19 21:02:00,
2013-05-19 14:07:00,62.8,53.6,30.10,NW,324,8.0,15.0,72,0.00,,,0.00,LWC V1.00 B64,2013-05-19 21:07:00,
2013-05-19 14:12:00,63.5,54.3,30.10,NNE,22,10.0,11.0,72,0.00,,,0.00,LWC V1.00 B64,2013-05-19 21:12:00,
2013-05-19 14:17:00,63.3,53.3,30.09,NNW,334,14.0,17.0,70,0.00,,,0.00,LWC V1.00 B64,2013-05-19 21:17:00,
2013-05-19 14:22:00,63.3,53.3,30.09,North,355,13.0,13.0,70,0.00,,,0.00,LWC V1.00 B64,2013-05-19 21:22:00,
2013-05-19 14:27:00,63.2,52.9,30.09,North,5,4.0,12.0,69,0.00,,,0.00,LWC V1.00 B64,2013-05-19 21:27:00,
2013-05-19 14:32:00,62.9,53.3,30.09,North,0,10.0,16.0,71,0.00,,,0.00,LWC V1.00 B64,2013-05-19 21:32:00,
2013-05-19 14:37:00,63.0,53.4,30.09,North,355,13.0,16.0,71,0.00,,,0.00,LWC V1.00 B64,2013-05-19 21:37:00,
2013-05-19 14:42:00,62.9,53.0,30.09,North,355,16.0,17.0,70,0.00,,,0.00,LWC V1.00 B64,2013-05-19 21:42:00,
2013-05-19 14:47:00,62.9,53.0,30.09,North,349,14.0,15.0,70,0.00,,,0.00,LWC V1.00 B64,2013-05-19 21:47:00,
2013-05-19 14:52:00,62.9,53.7,30.09,North,0,5.0,16.0,72,0.00,,,0.00,LWC V1.00 B64,2013-05-19 21:52:00,
2013-05-19 14:57:00,63.0,53.4,30.09,North,350,9.0,13.0,71,0.00,,,0.00,LWC V1.00 B64,2013-05-19 21:57:00,
2013-05-19 15:02:00,63.2,52.9,30.08,North,355,8.0,13.0,69,0.00,,,0.00,LWC V1.00 B64,2013-05-19 22:02:00,
2013-05-19 15:07:00,62.9,53.3,30.08,North,5,10.0,12.0,71,0.00,,,0.00,LWC V1.00 B64,2013-05-19 22:07:00,
2013-05-19 15:12:00,62.9,53.3,30.08,North,10,7.0,14.0,71,0.00,,,0.00,LWC V1.00 B64,2013-05-19 22:12:00,
2013-05-19 15:17:00,63.4,53.0,30.08,North,9,16.0,16.0,69,0.00,,,0.00,LWC V1.00 B64,2013-05-19 22:17:00,
2013-05-19 15:22:00,63.4,53.4,30.07,NNE,15,11.0,12.0,70,0.00,,,0.00,LWC V1.00 B64,2013-05-19 22:22:00,
2013-05-19 15:27:00,63.9,53.9,30.07,NNW,345,6.0,11.0,70,0.00,,,0.00,LWC V1.00 B64,2013-05-19 22:27:00,
2013-05-19 15:32:00,64.1,53.7,30.07,North,0,5.0,12.0,69,0.00,,,0.00,LWC V1.00 B64,2013-05-19 22:32:00,
2013-05-19 15:37:00,64.5,53.7,30.07,NNW,348,6.0,11.0,68,0.00,,,0.00,LWC V1.00 B64,2013-05-19 22:37:00,
2013-05-19 15:42:00,64.4,54.0,30.07,North,10,5.0,14.0,69,0.00,,,0.00,LWC V1.00 B64,2013-05-19 22:42:00,
2013-05-19 15:47:00,64.7,53.9,30.07,NNW,346,11.0,11.0,68,0.00,,,0.00,LWC V1.00 B64,2013-05-19 22:47:00,
2013-05-19 15:52:00,64.7,54.3,30.07,NW,323,10.0,11.0,69,0.00,,,0.00,LWC V1.00 B64,2013-05-19 22:52:00,
2013-05-19 15:57:00,64.6,53.4,30.07,North,5,5.0,13.0,67,0.00,,,0.00,LWC V1.00 B64,2013-05-19 22:57:00,
2013-05-19 16:02:00,64.6,54.2,30.06,North,9,8.0,12.0,69,0.00,,,0.00,LWC V1.00 B64,2013-05-19 23:02:00,
2013-05-19 16:07:00,64.8,53.6,30.06,NNW,346,12.0,12.0,67,0.00,,,0.00,LWC V1.00 B64,2013-05-19 23:07:00,
2013-05-19 16:12:00,64.7,53.5,30.06,North,0,7.0,11.0,67,0.00,,,0.00,LWC V1.00 B64,2013-05-19 23:12:00,
2013-05-19 16:17:00,64.5,53.7,30.06,North,9,6.0,10.0,68,0.00,,,0.00,LWC V1.00 B64,2013-05-19 23:17:00,
2013-05-19 16:22:00,64.5,54.1,30.06,North,0,3.0,11.0,69,0.00,,,0.00,LWC V1.00 B64,2013-05-19 23:22:00,
2013-05-19 16:27:00,64.3,53.1,30.06,North,0,7.0,10.0,67,0.00,,,0.00,LWC V1.00 B64,2013-05-19 23:27:00,
2013-05-19 16:32:00,64.6,54.2,30.06,NNE,17,6.0,10.0,69,0.00,,,0.00,LWC V1.00 B64,2013-05-19 23:32:00,
2013-05-19 16:37:00,64.8,53.6,30.06,NNW,334,8.0,8.0,67,0.00,,,0.00,LWC V1.00 B64,2013-05-19 23:37:00,
2013-05-19 16:42:00,64.4,53.6,30.05,NNW,343,7.0,12.0,68,0.00,,,0.00,LWC V1.00 B64,2013-05-19 23:42:00,
2013-05-19 16:47:00,64.5,53.7,30.05,North,0,9.0,9.0,68,0.00,,,0.00,LWC V1.00 B64,2013-05-19 23:47:00,
2013-05-19 16:52:00,64.5,53.3,30.05,NNW,338,6.0,7.0,67,0.00,,,0.00,LWC V1.00 B64,2013-05-19 23:52:00,
2013-05-19 16:57:00,64.2,53.0,30.05,NW,313,9.0,12.0,67,0.00,,,0.00,LWC V1.00 B64,2013-05-19 23:57:00,
2013-05-19 17:02:00,64.0,52.8,30.05,NNW,342,10.0,10.0,67,0.00,,,0.00,LWC V1.00 B64,2013-05-20 00:02:00,
2013-05-19 17:07:00,63.5,53.1,30.05,NNW,334,3.0,11.0,69,0.00,,,0.00,LWC V1.00 B64,2013-05-20 00:07:00,
2013-05-19 17:12:00,63.4,53.0,30.05,NNW,333,5.0,12.0,69,0.00,,,0.00,LWC V1.00 B64,2013-05-20 00:12:00,
2013-05-19 17:17:00,63.1,53.2,30.05,North,0,6.0,14.0,70,0.00,,,0.00,LWC V1.00 B64,2013-05-20 00:17:00,
2013-05-19 17:22:00,62.7,52.8,30.04,North,350,4.0,11.0,70,0.00,,,0.00,LWC V1.00 B64,2013-05-20 00:22:00,
2013-05-19 17:27:00,62.0,52.9,30.04,NNW,343,7.0,11.0,72,0.00,,,0.00,LWC V1.00 B64,2013-05-20 00:27:00,
2013-05-19 17:32:00,62.0,52.9,30.04,NNW,348,7.0,11.0,72,0.00,,,0.00,LWC V1.00 B64,2013-05-20 00:32:00,
2013-05-19 17:37:00,61.7,53.0,30.04,NNW,345,4.0,9.0,73,0.00,,,0.00,LWC V1.00 B64,2013-05-20 00:37:00,
2013-05-19 17:42:00,61.4,52.3,30.04,North,0,2.0,12.0,72,0.00,,,0.00,LWC V1.00 B64,2013-05-20 00:42:00,
2013-05-19 17:47:00,61.2,52.5,30.04,North,9,8.0,12.0,73,0.00,,,0.00,LWC V1.00 B64,2013-05-20 00:47:00,
2013-05-19 17:52:00,60.7,52.4,30.04,North,5,5.0,10.0,74,0.00,,,0.00,LWC V1.00 B64,2013-05-20 00:52:00,
2013-05-19 17:57:00,60.9,52.6,30.04,North,0,4.0,11.0,74,0.00,,,0.00,LWC V1.00 B64,2013-05-20 00:57:00,
2013-05-19 18:02:00,60.9,51.8,30.04,North,0,7.0,11.0,72,0.00,,,0.00,LWC V1.00 B64,2013-05-20 01:02:00,
2013-05-19 18:07:00,60.5,52.2,30.04,NNE,15,5.0,10.0,74,0.00,,,0.00,LWC V1.00 B64,2013-05-20 01:07:00,
2013-05-19 18:12:00,60.3,52.0,30.03,North,0,6.0,11.0,74,0.00,,,0.00,LWC V1.00 B64,2013-05-20 01:12:00,
2013-05-19 18:17:00,59.9,52.0,30.03,North,355,5.0,10.0,75,0.00,,,0.00,LWC V1.00 B64,2013-05-20 01:17:00,
2013-05-19 18:22:00,59.7,51.8,30.03,NNW,345,3.0,12.0,75,0.00,,,0.00,LWC V1.00 B64,2013-05-20 01:22:00,
2013-05-19 18:27:00,59.6,51.7,30.03,North,355,6.0,11.0,75,0.00,,,0.00,LWC V1.00 B64,2013-05-20 01:27:00,
2013-05-19 18:32:00,59.3,51.4,30.03,North,355,6.0,10.0,75,0.00,,,0.00,LWC V1.00 B64,2013-05-20 01:32:00,
2013-05-19 18:37:00,59.0,51.4,30.03,North,355,5.0,11.0,76,0.00,,,0.00,LWC V1.00 B64,2013-05-20 01:37:00,
2013-05-19 18:42:00,58.9,51.3,30.03,NNW,344,6.0,12.0,76,0.00,,,0.00,LWC V1.00 B64,2013-05-20 01:42:00,
2013-05-19 18:47:00,58.0,50.5,30.04,NW,325,9.0,12.0,76,0.00,,,0.00,LWC V1.00 B64,2013-05-20 01:47:00,
2013-05-19 18:52:00,57.5,50.7,30.03,North,0,10.0,15.0,78,0.00,,,0.00,LWC V1.00 B64,2013-05-20 01:52:00,
2013-05-19 18:57:00,57.2,50.4,30.03,NNW,348,4.0,13.0,78,0.00,,,0.00,LWC V1.00 B64,2013-05-20 01:57:00,
2013-05-19 19:02:00,57.3,50.8,30.03,North,350,3.0,10.0,79,0.00,,,0.00,LWC V1.00 B64,2013-05-20 02:02:00,
2013-05-19 19:07:00,57.1,50.6,30.02,North,0,7.0,7.0,79,0.00,,,0.00,LWC V1.00 B64,2013-05-20 02:07:00,
2013-05-19 19:12:00,56.9,50.5,30.03,NNW,344,8.0,12.0,79,0.00,,,0.00,LWC V1.00 B64,2013-05-20 02:12:00,
2013-05-19 19:17:00,56.7,50.6,30.02,NNW,348,5.0,11.0,80,0.00,,,0.00,LWC V1.00 B64,2013-05-20 02:17:00,
2013-05-19 19:22:00,56.4,50.3,30.02,North,5,2.0,10.0,80,0.00,,,0.00,LWC V1.00 B64,2013-05-20 02:22:00,
2013-05-19 19:27:00,56.3,50.5,30.02,NNW,345,1.0,3.0,81,0.00,,,0.00,LWC V1.00 B64,2013-05-20 02:27:00,
2013-05-19 19:32:00,56.3,50.5,30.02,North,9,2.0,5.0,81,0.00,,,0.00,LWC V1.00 B64,2013-05-20 02:32:00,
2013-05-19 19:37:00,56.0,50.2,30.03,NNW,338,2.0,5.0,81,0.00,,,0.00,LWC V1.00 B64,2013-05-20 02:37:00,
2013-05-19 19:42:00,55.7,50.0,30.03,NNW,344,3.0,4.0,81,0.00,,,0.00,LWC V1.00 B64,2013-05-20 02:42:00,
2013-05-19 19:47:00,55.5,50.1,30.03,North,355,3.0,4.0,82,0.00,,,0.00,LWC V1.00 B64,2013-05-20 02:47:00,
2013-05-19 19:52:00,55.3,50.2,30.03,North,0,1.0,4.0,83,0.00,,,0.00,LWC V1.00 B64,2013-05-20 02:52:00,
2013-05-19 19:57:00,55.1,50.0,30.03,North,5,0.0,2.0,83,0.00,,,0.00,LWC V1.00 B64,2013-05-20 02:57:00,
2013-05-19 20:02:00,54.8,49.7,30.03,North,0,0.0,0.0,83,0.00,,,0.00,LWC V1.00 B64,2013-05-20 03:02:00,
2013-05-19 20:07:00,54.6,49.9,30.03,North,0,0.0,2.0,84,0.00,,,0.00,LWC V1.00 B64,2013-05-20 03:07:00,
2013-05-19 20:12:00,54.4,49.7,30.03,North,5,0.0,3.0,84,0.00,,,0.00,LWC V1.00 B64,2013-05-20 03:12:00,
2013-05-19 20:17:00,54.2,49.5,30.03,North,0,2.0,5.0,84,0.00,,,0.00,LWC V1.00 B64,2013-05-20 03:17:00,
2013-05-19 20:22:00,54.0,49.6,30.03,North,0,0.0,0.0,85,0.00,,,0.00,LWC V1.00 B64,2013-05-20 03:22:00,
2013-05-19 20:27:00,53.9,49.5,30.03,North,0,1.0,1.0,85,0.00,,,0.00,LWC V1.00 B64,2013-05-20 03:27:00,
2013-05-19 20:32:00,53.6,49.2,30.03,North,355,0.0,0.0,85,0.00,,,0.00,LWC V1.00 B64,2013-05-20 03:32:00,
2013-05-19 20:37:00,53.5,49.1,30.03,North,355,0.0,0.0,85,0.00,,,0.00,LWC V1.00 B64,2013-05-20 03:37:00,
2013-05-19 20:42:00,53.2,48.8,30.03,North,355,0.0,1.0,85,0.00,,,0.00,LWC V1.00 B64,2013-05-20 03:42:00,
2013-05-19 20:47:00,53.0,48.6,30.03,North,355,0.0,2.0,85,0.00,,,0.00,LWC V1.00 B64,2013-05-20 03:47:00,
2013-05-19 20:52:00,52.7,48.3,30.03,North,355,0.0,0.0,85,0.00,,,0.00,LWC V1.00 B64,2013-05-20 03:52:00,
2013-05-19 20:57:00,52.6,48.5,30.03,North,355,0.0,0.0,86,0.00,,,0.00,LWC V1.00 B64,2013-05-20 03:57:00,
2013-05-19 21:01:00,52.4,48.3,30.03,North,355,0.0,0.0,86,0.00,,,0.00,LWC V1.00 B64,2013-05-20 04:01:00,
2013-05-19 21:02:00,52.4,48.3,30.03,North,355,0.0,0.0,86,0.00,,,0.00,LWC V1.00 B64,2013-05-20 04:02:00,
2013-05-19 21:04:00,52.3,48.2,30.03,North,355,0.0,0.0,86,0.00,,,0.00,LWC V1.00 B64,2013-05-20 04:04:00,
2013-05-19 21:06:00,52.2,48.1,30.03,North,355,0.0,1.0,86,0.00,,,0.00,LWC V1.00 B64,2013-05-20 04:06:00,
2013-05-19 21:11:00,52.1,48.3,30.03,North,355,0.0,1.0,87,0.00,,,0.00,LWC V1.00 B64,2013-05-20 04:11:00,
2013-05-19 21:13:00,52.1,48.3,30.03,North,355,0.0,2.0,87,0.00,,,0.00,LWC V1.00 B64,2013-05-20 04:13:00,
2013-05-19 21:18:00,52.0,48.3,30.03,North,355,0.0,0.0,87,0.00,,,0.00,LWC V1.00 B64,2013-05-20 04:18:00,
2013-05-19 21:23:00,52.0,48.3,30.03,North,355,0.0,0.0,87,0.00,,,0.00,LWC V1.00 B64,2013-05-20 04:23:00,
2013-05-19 21:28:00,51.9,48.2,30.03,North,355,0.0,0.0,87,0.00,,,0.00,LWC V1.00 B64,2013-05-20 04:28:00,
2013-05-19 21:33:00,51.8,48.1,30.03,North,355,0.0,0.0,87,0.00,,,0.00,LWC V1.00 B64,2013-05-20 04:33:00,
2013-05-19 21:38:00,51.7,48.0,30.04,North,355,0.0,0.0,87,0.00,,,0.00,LWC V1.00 B64,2013-05-20 04:38:00,
2013-05-19 21:43:00,51.4,47.7,30.04,North,355,0.0,0.0,87,0.00,,,0.00,LWC V1.00 B64,2013-05-20 04:43:00,
2013-05-19 21:48:00,51.3,47.9,30.04,North,355,0.0,0.0,88,0.00,,,0.00,LWC V1.00 B64,2013-05-20 04:48:00,
2013-05-19 21:53:00,51.1,47.7,30.04,North,355,0.0,0.0,88,0.00,,,0.00,LWC V1.00 B64,2013-05-20 04:53:00,
2013-05-19 21:58:00,51.0,47.6,30.04,North,355,0.0,0.0,88,0.00,,,0.00,LWC V1.00 B64,2013-05-20 04:58:00,
2013-05-19 22:03:00,50.8,47.4,30.04,North,355,0.0,0.0,88,0.00,,,0.00,LWC V1.00 B64,2013-05-20 05:03:00,
2013-05-19 22:08:00,50.6,47.2,30.04,North,355,0.0,0.0,88,0.00,,,0.00,LWC V1.00 B64,2013-05-20 05:08:00,
2013-05-19 22:13:00,50.5,47.1,30.04,North,355,0.0,0.0,88,0.00,,,0.00,LWC V1.00 B64,2013-05-20 05:13:00,
2013-05-19 22:18:00,50.3,46.9,30.05,North,355,0.0,0.0,88,0.00,,,0.00,LWC V1.00 B64,2013-05-20 05:18:00,
2013-05-19 22:23:00,50.1,47.0,30.04,North,355,0.0,0.0,89,0.00,,,0.00,LWC V1.00 B64,2013-05-20 05:23:00,
2013-05-19 22:28:00,50.0,46.9,30.05,North,355,0.0,0.0,89,0.00,,,0.00,LWC V1.00 B64,2013-05-20 05:28:00,
2013-05-19 22:33:00,49.8,46.7,30.04,North,355,0.0,0.0,89,0.00,,,0.00,LWC V1.00 B64,2013-05-20 05:33:00,
2013-05-19 22:38:00,49.7,46.6,30.04,North,355,0.0,0.0,89,0.00,,,0.00,LWC V1.00 B64,2013-05-20 05:38:00,
2013-05-19 22:43:00,49.6,46.5,30.04,North,355,0.0,0.0,89,0.00,,,0.00,LWC V1.00 B64,2013-05-20 05:43:00,
2013-05-19 22:48:00,49.4,46.3,30.04,North,355,0.0,0.0,89,0.00,,,0.00,LWC V1.00 B64,2013-05-20 05:48:00,
2013-05-19 22:53:00,49.2,46.1,30.04,North,355,0.0,0.0,89,0.00,,,0.00,LWC V1.00 B64,2013-05-20 05:53:00,
2013-05-19 22:58:00,49.1,46.0,30.03,North,355,0.0,0.0,89,0.00,,,0.00,LWC V1.00 B64,2013-05-20 05:58:00,
2013-05-19 23:03:00,49.0,46.2,30.03,North,355,0.0,0.0,90,0.00,,,0.00,LWC V1.00 B64,2013-05-20 06:03:00,
2013-05-19 23:08:00,48.9,46.1,30.03,North,355,0.0,0.0,90,0.00,,,0.00,LWC V1.00 B64,2013-05-20 06:08:00,
2013-05-19 23:13:00,48.8,46.0,30.03,North,355,0.0,0.0,90,0.00,,,0.00,LWC V1.00 B64,2013-05-20 06:13:00,
2013-05-19 23:18:00,48.6,45.8,30.03,North,355,0.0,0.0,90,0.00,,,0.00,LWC V1.00 B64,2013-05-20 06:18:00,
2013-05-19 23:23:00,48.4,45.6,30.03,North,355,0.0,0.0,90,0.00,,,0.00,LWC V1.00 B64,2013-05-20 06:23:00,
2013-05-19 23:28:00,48.3,45.5,30.03,North,355,0.0,0.0,90,0.00,,,0.00,LWC V1.00 B64,2013-05-20 06:28:00,
2013-05-19 23:33:00,48.2,45.4,30.03,North,355,0.0,0.0,90,0.00,,,0.00,LWC V1.00 B64,2013-05-20 06:33:00,
2013-05-19 23:38:00,48.0,45.2,30.03,North,355,0.0,0.0,90,0.00,,,0.00,LWC V1.00 B64,2013-05-20 06:38:00,
2013-05-19 23:43:00,47.9,45.4,30.03,North,355,0.0,0.0,91,0.00,,,0.00,LWC V1.00 B64,2013-05-20 06:43:00,
2013-05-19 23:48:00,47.7,44.9,30.03,North,355,0.0,0.0,90,0.00,,,0.00,LWC V1.00 B64,2013-05-20 06:48:00,
2013-05-19 23:53:00,47.5,45.0,30.03,North,355,0.0,0.0,91,0.00,,,0.00,LWC V1.00 B64,2013-05-20 06:53:00,
2013-05-19 23:58:00,47.4,44.9,30.03,North,355,0.0,0.0,91,0.00,,,0.00,LWC V1.00 B64,2013-05-20 06:58:00,